EW5474 Weather Reports


Display with metric or nautical units.
time (UTC)temp
F
wind
direction
speed
MPH
gust
MPH
rain 1hr
in
rain 24hr
in
rain mn
in
humidity
%
barometer
mb
20260503071311 48 5 0.0 0.0 0.00 0.04 0.00 67 1012.3
20260503070804 48 5 0.0 0.0 0.00 0.04 0.00 67 1012.3
20260503070259 48 5 0.0 0.0 0.00 0.04 0.00 67 1012.3
20260503054632 52 340 0.0 1.0 0.00 0.04 0.00 61 1011.6
20260503054626 52 355 0.0 1.0 0.00 0.04 0.00 61 1011.7
20260503053617 52 9 0.0 0.0 0.00 0.04 0.00 61 1011.8
20260503053111 53 9 0.0 0.0 0.00 0.04 0.00 61 1012.0
20260503052604 53 9 0.0 1.0 0.00 0.04 0.00 61 1012.0
20260503052059 53 10 0.0 1.0 0.00 0.04 0.00 61 1012.0
20260503051553 53 0 0.0 2.0 0.00 0.04 0.00 61 1012.1
20260503051047 53 0 0.0 2.0 0.00 0.04 0.00 60 1012.1
20260503050541 53 333 1.0 4.0 0.00 0.04 0.00 60 1011.9
20260503050034 54 347 0.0 4.0 0.00 0.04 0.00 61 1011.8
20260503045529 54 355 0.0 2.0 0.00 0.04 0.00 61 1011.9
20260503045022 54 19 0.0 2.0 0.00 0.04 0.00 61 1012.0
20260503044517 54 336 0.0 2.0 0.00 0.04 0.00 62 1012.0
20260503044010 54 10 0.0 0.0 0.00 0.04 0.00 61 1011.9
20260503043507 54 23 0.0 0.0 0.00 0.04 0.00 61 1012.0
20260503043501 54 339 0.0 2.0 0.00 0.04 0.00 61 1012.0
20260503042452 55 17 0.0 2.0 0.00 0.04 0.00 61 1011.9
20260503041947 55 5 0.0 1.0 0.00 0.04 0.00 61 1011.9
20260503041441 55 46 1.0 5.0 0.00 0.04 0.00 61 1012.1
20260503040935 55 46 1.0 5.0 0.00 0.04 0.00 61 1012.0
20260503040428 55 17 1.0 3.0 0.00 0.04 0.00 60 1011.9
20260503035923 55 53 0.0 3.0 0.00 0.04 0.04 60 1012.1
20260503035416 55 324 0.0 3.0 0.00 0.04 0.04 60 1012.1
20260503034911 55 344 0.0 2.0 0.00 0.04 0.04 59 1012.1
20260503034404 55 327 0.0 4.0 0.00 0.04 0.04 59 1011.9
20260503033859 55 340 0.0 4.0 0.00 0.04 0.04 59 1011.9
20260503033623 55 355 0.0 2.0 0.00 0.04 0.04 59 1011.9
20260503032847 55 355 0.0 2.0 0.00 0.04 0.04 59 1011.8
20260503032611 56 337 0.0 4.0 0.00 0.04 0.04 59 1011.8
20260503031838 56 0 1.0 4.0 0.00 0.04 0.04 58 1011.7
20260503031831 56 326 2.0 5.0 0.00 0.04 0.04 58 1011.6
20260503030823 56 355 1.0 5.0 0.00 0.04 0.04 58 1011.7
20260503030317 56 355 1.0 3.0 0.00 0.04 0.04 57 1011.8
20260503025811 56 340 1.0 4.0 0.00 0.04 0.04 57 1011.8
20260503025305 56 322 1.0 4.0 0.00 0.04 0.04 57 1011.9
20260503025029 56 329 0.0 4.0 0.00 0.04 0.04 58 1011.9
20260503024253 56 27 1.0 3.0 0.00 0.04 0.04 58 1012.0
20260503023747 56 332 2.0 5.0 0.00 0.04 0.04 57 1011.9
20260503023511 56 348 2.0 5.0 0.00 0.04 0.04 57 1012.0
20260503022735 56 326 1.0 5.0 0.00 0.04 0.04 57 1011.9
20260503022228 56 10 2.0 4.0 0.00 0.04 0.04 56 1012.0
20260503021722 56 325 2.0 5.0 0.00 0.04 0.04 56 1011.9
20260503021217 56 355 3.0 5.0 0.00 0.04 0.04 56 1012.0
20260503020710 56 340 3.0 8.0 0.00 0.04 0.04 56 1011.9
20260503020206 56 325 3.0 8.0 0.00 0.04 0.04 56 1011.9
20260503020200 56 355 2.0 11.0 0.00 0.04 0.04 56 1011.9
20260503015154 56 339 2.0 9.0 0.00 0.04 0.04 56 1011.9
20260503014654 56 314 3.0 9.0 0.00 0.04 0.04 56 1011.9
20260503014155 56 336 3.0 8.0 0.00 0.04 0.04 55 1011.9
20260503013653 56 329 2.0 8.0 0.00 0.04 0.04 55 1011.7
20260503013424 56 311 2.0 5.0 0.00 0.04 0.04 55 1011.6
20260503012654 56 338 2.0 6.0 0.00 0.04 0.04 55 1011.4
20260503012153 56 355 2.0 6.0 0.00 0.04 0.04 56 1011.5
20260503011652 56 343 3.0 7.0 0.00 0.04 0.04 55 1011.4
20260503011153 56 9 2.0 7.0 0.00 0.04 0.04 55 1011.6
20260503010654 56 333 2.0 5.0 0.00 0.04 0.04 55 1011.7
20260503010423 56 32 3.0 10.0 0.00 0.04 0.04 55 1011.6
20260503005653 56 350 3.0 10.0 0.00 0.04 0.04 55 1011.6
20260503005153 56 355 3.0 9.0 0.00 0.04 0.04 54 1011.5
20260503004152 56 284 3.0 11.0 0.00 0.04 0.04 54 1011.3
20260503003652 56 344 3.0 9.0 0.00 0.04 0.04 55 1011.3
20260503003151 56 355 3.0 10.0 0.00 0.04 0.04 55 1011.4
20260503002651 56 0 3.0 10.0 0.00 0.04 0.04 55 1011.3
20260503002144 56 5 3.0 9.0 0.00 0.04 0.04 56 1011.2
20260503001639 56 346 3.0 6.0 0.00 0.04 0.04 55 1011.1
20260503001404 56 5 4.0 10.0 0.00 0.04 0.04 55 1011.1
20260503000627 56 37 4.0 10.0 0.00 0.04 0.04 55 1011.0
20260503000120 56 340 4.0 9.0 0.00 0.04 0.04 55 1011.0
20260502235846 56 5 4.0 9.0 0.00 0.04 0.04 55 1010.9
20260502235340 56 300 4.0 11.0 0.00 0.04 0.04 55 1011.0
20260502234603 56 355 5.0 11.0 0.00 0.04 0.04 53 1011.0
20260502234057 56 303 3.0 11.0 0.00 0.04 0.04 52 1010.9
20260502233550 56 343 2.0 5.0 0.00 0.04 0.04 51 1010.8
20260502233045 56 290 3.0 8.0 0.00 0.04 0.04 50 1010.8
20260502232539 56 10 4.0 12.0 0.00 0.04 0.04 49 1010.8
20260502232033 56 319 4.0 12.0 0.00 0.04 0.04 49 1010.8
20260502231757 56 327 3.0 9.0 0.00 0.04 0.04 50 1010.9
20260502231021 56 355 4.0 8.0 0.00 0.04 0.04 50 1010.8
20260502230530 56 345 3.0 11.0 0.00 0.04 0.04 50 1010.8
20260502230511 56 42 3.0 11.0 0.00 0.04 0.04 51 1010.7
20260502225503 56 340 4.0 12.0 0.00 0.04 0.04 51 1010.7
20260502224956 56 15 5.0 12.0 0.00 0.04 0.04 51 1010.9
20260502224451 56 314 4.0 12.0 0.00 0.04 0.04 51 1010.9
20260502224215 56 5 4.0 12.0 0.00 0.04 0.04 52 1010.9
20260502223439 56 336 3.0 12.0 0.00 0.04 0.04 52 1010.9
20260502222933 56 344 3.0 12.0 0.00 0.04 0.04 53 1011.0
20260502222426 56 0 4.0 10.0 0.00 0.04 0.04 53 1011.1
20260502221921 56 19 3.0 10.0 0.00 0.04 0.04 53 1011.0
20260502221415 56 331 3.0 10.0 0.00 0.04 0.04 53 1011.0
20260502220908 56 302 4.0 12.0 0.00 0.04 0.04 53 1011.0
20260502220403 56 311 4.0 12.0 0.00 0.04 0.04 52 1011.0
20260502215857 56 325 4.0 11.0 0.00 0.04 0.04 52 1011.0
20260502215350 56 315 4.0 10.0 0.00 0.04 0.04 54 1011.0
20260502214845 56 355 5.0 12.0 0.00 0.04 0.04 55 1010.9
20260502214339 56 46 5.0 12.0 0.00 0.04 0.04 54 1010.7
20260502213832 56 5 5.0 10.0 0.00 0.04 0.04 55 1010.7
20260502213327 56 251 6.0 12.0 0.00 0.04 0.04 54 1010.7
20260502212821 57 9 4.0 12.0 0.00 0.04 0.04 54 1010.6
20260502212315 57 323 3.0 11.0 0.00 0.04 0.04 57 1010.6
20260502211822 57 338 4.0 11.0 0.00 0.04 0.04 57 1010.6
20260502211303 57 42 4.0 10.0 0.00 0.04 0.04 57 1010.6
20260502210757 56 42 5.0 14.0 0.00 0.04 0.04 57 1010.6
20260502210251 56 21 5.0 14.0 0.00 0.04 0.04 58 1010.7
20260502205744 56 302 4.0 12.0 0.00 0.04 0.04 57 1010.6
20260502205239 57 48 3.0 12.0 0.00 0.04 0.04 58 1010.6
20260502205007 57 16 3.0 8.0 0.00 0.04 0.04 59 1010.5
20260502204236 57 39 4.0 10.0 0.00 0.04 0.04 57 1010.6
20260502203734 56 335 5.0 11.0 0.00 0.04 0.04 57 1010.5
20260502203234 56 35 5.0 13.0 0.00 0.04 0.04 56 1010.6
20260502203005 57 346 6.0 13.0 0.00 0.04 0.04 56 1010.4
20260502202234 57 355 6.0 13.0 0.00 0.04 0.04 55 1010.6
20260502201734 57 67 5.0 13.0 0.00 0.04 0.04 56 1010.7
20260502201506 57 339 4.0 12.0 0.00 0.04 0.04 61 1010.7
20260502200734 57 84 5.0 12.0 0.00 0.04 0.04 61 1010.7
20260502200234 57 23 6.0 12.0 0.00 0.04 0.04 60 1010.8
20260502195745 57 76 5.0 13.0 0.00 0.04 0.04 63 1010.7
20260502195735 57 40 5.0 12.0 0.00 0.04 0.04 61 1010.7
20260502194734 57 342 4.0 13.0 0.00 0.04 0.04 65 1010.7
20260502194234 56 34 4.0 12.0 0.00 0.04 0.04 66 1011.0
20260502193735 56 340 4.0 11.0 0.00 0.04 0.04 65 1011.0
20260502193242 56 355 3.0 11.0 0.00 0.04 0.04 65 1011.2
20260502192723 57 315 3.0 8.0 0.00 0.04 0.04 66 1011.4
20260502192217 56 52 3.0 7.0 0.00 0.04 0.04 66 1011.0
20260502191711 56 321 3.0 7.0 0.00 0.04 0.04 66 1011.2
20260502191205 56 0 3.0 8.0 0.00 0.04 0.04 66 1011.1
20260502190658 56 272 3.0 11.0 0.00 0.04 0.04 68 1011.1
20260502190153 56 319 4.0 11.0 0.00 0.04 0.04 64 1011.1
20260502185918 56 9 4.0 12.0 0.01 0.04 0.04 66 1011.4
20260502185141 56 311 4.0 12.0 0.01 0.04 0.04 65 1011.1
20260502184635 55 20 5.0 12.0 0.01 0.04 0.04 63 1011.1
20260502184129 55 20 5.0 12.0 0.01 0.04 0.04 65 1011.6
20260502183622 55 336 4.0 12.0 0.01 0.04 0.04 67 1011.8
20260502183348 56 0 4.0 10.0 0.01 0.04 0.04 69 1011.7
20260502182613 56 46 5.0 10.0 0.01 0.04 0.04 74 1011.9
20260502182606 55 80 4.0 10.0 0.01 0.04 0.04 71 1011.9
20260502181559 55 24 4.0 9.0 0.01 0.04 0.04 73 1011.9
20260502181053 55 337 4.0 11.0 0.01 0.04 0.04 73 1012.1
20260502180547 55 334 3.0 11.0 0.01 0.04 0.04 74 1012.3
20260502163904 54 349 4.0 12.0 0.01 0.02 0.02 73 1012.9
20260502163359 54 331 5.0 10.0 0.01 0.02 0.02 72 1012.9
20260502162853 55 335 4.0 10.0 0.01 0.02 0.02 72 1013.0
20260502162347 55 355 4.0 9.0 0.02 0.02 0.02 75 1013.1
20260502161841 55 59 4.0 14.0 0.02 0.02 0.02 75 1013.1
20260502161334 55 9 3.0 14.0 0.02 0.02 0.02 77 1013.3
20260502160829 56 341 3.0 9.0 0.02 0.02 0.02 77 1013.2
20260502160553 56 334 4.0 11.0 0.01 0.01 0.01 77 1013.2
20260502152234 56 5 3.0 9.0 0.00 0.00 0.00 70 1013.2
20260502151729 56 84 4.0 10.0 0.00 0.00 0.00 69 1013.2
20260502151226 56 325 4.0 13.0 0.00 0.00 0.00 69 1013.2
20260502151219 56 36 5.0 13.0 0.00 0.00 0.00 68 1013.2
20260502150210 57 355 4.0 12.0 0.00 0.00 0.00 67 1013.2
20260502130452 57 336 3.0 11.0 0.00 0.00 0.00 74 1011.9
20260502122911 57 341 2.0 8.0 0.00 0.00 0.00 74 1012.3
20260502122405 57 333 3.0 8.0 0.00 0.00 0.00 74 1012.2
20260502121858 57 346 3.0 8.0 0.00 0.00 0.00 74 1012.2
20260502121353 57 320 3.0 9.0 0.00 0.00 0.00 73 1012.2
20260502120847 57 347 3.0 9.0 0.00 0.00 0.00 74 1012.3
20260502120341 56 67 3.0 6.0 0.00 0.00 0.00 74 1012.2
20260502115834 56 310 3.0 8.0 0.00 0.00 0.00 75 1012.3
20260502115329 56 340 3.0 9.0 0.00 0.00 0.00 75 1012.3
20260502114822 56 5 3.0 9.0 0.00 0.00 0.00 76 1012.3
20260502114316 56 342 3.0 8.0 0.00 0.00 0.00 76 1012.3
20260502113811 56 52 2.0 8.0 0.00 0.00 0.00 77 1012.3
20260502113305 56 332 2.0 8.0 0.00 0.00 0.00 77 1012.4
20260502112759 56 323 1.0 5.0 0.00 0.00 0.00 77 1012.5
20260502112252 56 304 2.0 5.0 0.00 0.00 0.00 77 1012.6
20260502111747 56 338 2.0 5.0 0.00 0.00 0.00 78 1012.6
20260502111253 56 22 2.0 6.0 0.00 0.00 0.00 78 1012.7
20260502110734 56 0 2.0 6.0 0.00 0.00 0.00 78 1012.6
20260502110229 56 327 1.0 6.0 0.00 0.00 0.00 77 1012.5
20260502105954 56 338 1.0 5.0 0.00 0.00 0.00 77 1012.5
20260502105217 56 323 1.0 5.0 0.00 0.00 0.00 77 1012.4
20260502104711 56 0 1.0 6.0 0.00 0.00 0.00 77 1012.2
20260502104217 56 341 2.0 6.0 0.00 0.00 0.00 77 1012.0
20260502103659 56 33 2.0 5.0 0.00 0.00 0.00 77 1012.0
20260502103206 56 24 1.0 4.0 0.00 0.00 0.00 77 1012.2
20260502102647 56 355 0.0 2.0 0.00 0.00 0.00 76 1011.9
20260502102141 55 16 1.0 3.0 0.00 0.00 0.00 76 1011.9
20260502101634 55 326 1.0 4.0 0.00 0.00 0.00 76 1011.8
20260502101402 55 25 0.0 4.0 0.00 0.00 0.00 76 1011.7
20260502100854 55 335 0.0 0.0 0.00 0.00 0.00 76 1011.6
20260502100117 55 344 0.0 0.0 0.00 0.00 0.00 77 1011.6
20260502091523 53 139 0.0 0.0 0.00 0.00 0.00 77 1011.5
20260502091017 53 140 0.0 0.0 0.00 0.00 0.00 77 1011.5
20260502090510 53 140 0.0 0.0 0.00 0.00 0.00 77 1011.3